When you browse on this site, cookies collect data to enhance your experience and personalize the content and advertising you see.
Visit our Privacy Policy to learn more. By continuing to use the site, you agree to this use of cookies and data.
  • In Hungary
  • List of Countries
  • For 7 days
  • Water Temperature
  • Weather Map
  • News
  • Weather Widgets
  • user-avatar
    Login

    Hourly Weather Ternitz

    Today, 9 December, Monday

    Time Temperature Precipitation Wind Pressure Humidity
    00:00 +5°C° 0 mm 1 mps 718 mmHg 62%
    01:00 +5°C° 0 mm 1 mps 718 mmHg 56%
    02:00 +5°C° 0 mm 1 mps 717 mmHg 60%
    03:00 +5°C° 0 mm 1 mps 717 mmHg 63%
    04:00 +6°C° 0 mm 1 mps 717 mmHg 66%
    05:00 +6°C° 0 mm 1 mps 717 mmHg 70%
    06:00 +6°C° 0 mm 1 mps 717 mmHg 73%
    07:00 +6°C° 0 mm 1 mps 717 mmHg 77%
    08:00 +6°C° 0.3 mm 1 mps 718 mmHg 79%
    09:00 +6°C° 0.3 mm 1 mps 718 mmHg 81%
    10:00 +7°C° 0.3 mm 1 mps 718 mmHg 83%
    11:00 +7°C° 1.2 mm 1 mps 718 mmHg 84%
    12:00 +7°C° 1.2 mm 1 mps 717 mmHg 86%
    13:00 +7°C° 1.2 mm 1 mps 717 mmHg 88%
    14:00 +6°C° 0.5 mm 1 mps 717 mmHg 89%
    15:00 +6°C° 0.5 mm 1 mps 716 mmHg 90%
    16:00 +6°C° 0.5 mm 1 mps 716 mmHg 91%
    17:00 +6°C° 0 mm 1 mps 716 mmHg 88%
    18:00 +6°C° 0 mm 1 mps 717 mmHg 86%
    19:00 +6°C° 0 mm 1 mps 717 mmHg 83%
    20:00 +5°C° 0 mm 1 mps 717 mmHg 84%
    21:00 +5°C° 0 mm 1 mps 718 mmHg 84%
    22:00 +5°C° 0 mm 1 mps 718 mmHg 85%
    23:00 +5°C° 0 mm 1 mps 718 mmHg 86%

    Tomorrow, 10 December, Tuesday

    Time Temperature Precipitation Wind Pressure Humidity
    00:00 +4°C° 0 mm 2 mps 719 mmHg 88%
    01:00 +4°C° 0 mm 2 mps 719 mmHg 90%
    02:00 +3°C° 0.1 mm 3 mps 720 mmHg 90%
    03:00 +3°C° 0.1 mm 3 mps 720 mmHg 91%
    04:00 +1°C° 0.1 mm 4 mps 720 mmHg 91%
    05:00 +1°C° 0.2 mm 4 mps 721 mmHg 91%
    06:00 +1°C° 0.2 mm 4 mps 722 mmHg 91%
    07:00 +3°C° 0.2 mm 4 mps 723 mmHg 91%
    08:00 +1°C° 0.2 mm 5 mps 724 mmHg 86%
    09:00 +1°C° 0.2 mm 6 mps 725 mmHg 80%
    10:00 0°C° 0.2 mm 7 mps 725 mmHg 75%
    11:00 0°C° 0 mm 7 mps 726 mmHg 73%
    12:00 0°C° 0 mm 7 mps 726 mmHg 71%
    13:00 0°C° 0 mm 7 mps 727 mmHg 69%
    14:00 -1°C° 0.1 mm 7 mps 727 mmHg 70%
    15:00 -1°C° 0.1 mm 6 mps 727 mmHg 72%
    16:00 -2°C° 0.1 mm 6 mps 727 mmHg 74%
    17:00 -1°C° 0 mm 5 mps 728 mmHg 76%
    18:00 -2°C° 0 mm 5 mps 728 mmHg 78%
    19:00 -3°C° 0 mm 4 mps 729 mmHg 80%
    20:00 -3°C° 0 mm 4 mps 729 mmHg 81%
    21:00 -2°C° 0 mm 3 mps 729 mmHg 83%
    22:00 -2°C° 0 mm 3 mps 729 mmHg 84%
    23:00 -3°C° 0 mm 2 mps 729 mmHg 85%

    Day after tomorrow, 11 December, Wednesday

    Time Temperature Precipitation Wind Pressure Humidity
    00:00 -3°C° 0 mm 2 mps 728 mmHg 86%
    01:00 -1°C° 0 mm 1 mps 728 mmHg 86%
    02:00 -2°C° 0 mm 1 mps 728 mmHg 84%
    03:00 -2°C° 0 mm 1 mps 727 mmHg 81%
    04:00 -2°C° 0 mm 1 mps 726 mmHg 78%
    05:00 -2°C° 0 mm 1 mps 726 mmHg 74%
    06:00 -2°C° 0 mm 1 mps 726 mmHg 70%
    07:00 -2°C° 0 mm 1 mps 725 mmHg 66%
    08:00 -1°C° 0 mm 1 mps 725 mmHg 63%
    09:00 0°C° 0 mm 1 mps 725 mmHg 59%
    10:00 +1°C° 0 mm 1 mps 725 mmHg 55%
    11:00 +2°C° 0 mm 1 mps 724 mmHg 54%
    12:00 +3°C° 0 mm 1 mps 723 mmHg 52%
    13:00 +3°C° 0 mm 2 mps 722 mmHg 50%
    14:00 +2°C° 0 mm 2 mps 722 mmHg 57%
    15:00 -1°C° 0 mm 2 mps 721 mmHg 64%
    16:00 -2°C° 0 mm 2 mps 720 mmHg 71%
    17:00 -2°C° 0 mm 2 mps 720 mmHg 72%
    18:00 -3°C° 0 mm 2 mps 720 mmHg 73%
    19:00 -3°C° 0 mm 2 mps 720 mmHg 74%
    20:00 -3°C° 0 mm 2 mps 720 mmHg 72%
    21:00 -1°C° 0 mm 1 mps 720 mmHg 71%
    22:00 -2°C° 0 mm 1 mps 720 mmHg 70%
    23:00 -1°C° 0 mm 1 mps 719 mmHg 68%

    12 December, Thursday

    Time Temperature Precipitation Wind Pressure Humidity
    00:00 -1°C° 0 mm 1 mps 719 mmHg 65%
    01:00 -1°C° 0 mm 1 mps 719 mmHg 63%
    02:00 -1°C° 0 mm 1 mps 719 mmHg 65%
    03:00 0°C° 0 mm 1 mps 718 mmHg 68%
    04:00 0°C° 0 mm 1 mps 718 mmHg 71%
    05:00 -1°C° 0.1 mm 0 mps 718 mmHg 72%
    06:00 -1°C° 0.1 mm 0 mps 719 mmHg 74%
    07:00 0°C° 0.1 mm 0 mps 719 mmHg 76%
    08:00 0°C° 0.1 mm 0 mps 719 mmHg 76%
    09:00 +1°C° 0.1 mm 0 mps 719 mmHg 75%
    10:00 +2°C° 0.1 mm 0 mps 719 mmHg 74%
    11:00 +3°C° 0.1 mm 1 mps 719 mmHg 76%
    12:00 +3°C° 0.1 mm 1 mps 719 mmHg 79%
    13:00 +2°C° 0.1 mm 2 mps 719 mmHg 81%
    14:00 +3°C° 0.1 mm 1 mps 719 mmHg 82%
    15:00 +2°C° 0.1 mm 1 mps 719 mmHg 84%
    16:00 +1°C° 0.1 mm 1 mps 718 mmHg 86%
    17:00 +1°C° 0 mm 1 mps 718 mmHg 85%
    18:00 0°C° 0 mm 1 mps 718 mmHg 85%
    19:00 0°C° 0 mm 1 mps 718 mmHg 85%
    20:00 0°C° 0 mm 1 mps 718 mmHg 84%
    21:00 -2°C° 0 mm 2 mps 718 mmHg 84%
    22:00 -3°C° 0 mm 2 mps 717 mmHg 83%
    23:00 -2°C° 0 mm 2 mps 716 mmHg 86%

    13 December, Friday

    Time Temperature Precipitation Wind Pressure Humidity
    00:00 -2°C° 0 mm 3 mps 715 mmHg 88%
    01:00 -2°C° 0 mm 3 mps 714 mmHg 90%
    02:00 -3°C° 0 mm 4 mps 713 mmHg 86%
    03:00 -2°C° 0 mm 5 mps 712 mmHg 82%
    04:00 -2°C° 0 mm 5 mps 710 mmHg 78%
    05:00 -3°C° 0 mm 6 mps 709 mmHg 79%
    06:00 -3°C° 0 mm 6 mps 708 mmHg 80%
    07:00 -3°C° 0 mm 6 mps 707 mmHg 81%
    08:00 -3°C° 0 mm 6 mps 706 mmHg 77%
    09:00 -2°C° 0 mm 6 mps 705 mmHg 74%
    10:00 -1°C° 0 mm 5 mps 705 mmHg 71%
    11:00 -1°C° 0 mm 6 mps 704 mmHg 68%
    12:00 +1°C° 0 mm 6 mps 703 mmHg 64%
    13:00 +2°C° 0 mm 6 mps 703 mmHg 61%
    14:00 +1°C° 0.2 mm 4 mps 703 mmHg 68%
    15:00 +2°C° 0.2 mm 3 mps 703 mmHg 75%
    16:00 +3°C° 0.2 mm 1 mps 704 mmHg 82%
    17:00 +3°C° 0.1 mm 1 mps 704 mmHg 84%
    18:00 +2°C° 0.1 mm 1 mps 705 mmHg 86%
    19:00 +2°C° 0.1 mm 1 mps 705 mmHg 89%
    20:00 +2°C° 0 mm 1 mps 706 mmHg 89%
    21:00 +2°C° 0 mm 1 mps 706 mmHg 89%
    22:00 +2°C° 0 mm 1 mps 707 mmHg 90%
    23:00 +2°C° 0 mm 1 mps 707 mmHg 89%

    14 December, Saturday

    Time Temperature Precipitation Wind Pressure Humidity
    00:00 +1°C° 0 mm 2 mps 707 mmHg 88%
    01:00 0°C° 0 mm 3 mps 707 mmHg 87%
    02:00 0°C° 0 mm 3 mps 708 mmHg 86%
    03:00 0°C° 0 mm 3 mps 708 mmHg 85%
    04:00 +1°C° 0 mm 3 mps 709 mmHg 84%
    05:00 0°C° 0 mm 3 mps 709 mmHg 82%
    06:00 0°C° 0 mm 3 mps 709 mmHg 81%
    07:00 0°C° 0 mm 3 mps 710 mmHg 79%
    08:00 +2°C° 0 mm 2 mps 710 mmHg 76%
    09:00 +3°C° 0 mm 2 mps 711 mmHg 73%
    10:00 +3°C° 0 mm 2 mps 711 mmHg 70%
    11:00 +4°C° 0 mm 2 mps 711 mmHg 69%
    12:00 +5°C° 0 mm 2 mps 711 mmHg 68%
    13:00 +6°C° 0 mm 1 mps 710 mmHg 66%
    14:00 +5°C° 0 mm 1 mps 711 mmHg 72%
    15:00 +5°C° 0 mm 1 mps 711 mmHg 77%
    16:00 +4°C° 0 mm 1 mps 712 mmHg 83%
    17:00 +3°C° 0 mm 2 mps 712 mmHg 83%
    18:00 +2°C° 0 mm 2 mps 713 mmHg 84%
    19:00 +2°C° 0 mm 2 mps 714 mmHg 84%
    20:00 +2°C° 0.1 mm 2 mps 715 mmHg 86%
    21:00 +2°C° 0.1 mm 2 mps 715 mmHg 87%
    22:00 +2°C° 0.1 mm 2 mps 716 mmHg 88%
    23:00 +2°C° 0.3 mm 2 mps 717 mmHg 88%
    Show more